Back to catalog

FENGYUN 1C DEB

AlivePO
NORAD 31198·DEBRIS·🇨🇳 China

Launched May 10, 1999 from Taiyuan Satellite Launch Center

Loading…

Next Passes (next 24 hours)

TLE

FreshSource: Space-Track

Epoch: Sep 13, 2026, 23:07 UTC

1 31198U 99025BKC 26256.96328833  .00000037  00000-0  67706-4 0  9990
2 31198  98.6091 339.5241 0203409 332.7311  26.3276 13.75583303665373

Track FENGYUN 1C DEB in real time with AllMySat

Download on the App Store